小惑星A/2022 B3

A/2022 B3

English version
Home page
Updated on March 7, 2023

---------------------------------------------------------------------

・ プロフィール

発見日 2022年1月31日
発見光度 21.51等
発見者 H. Groeller (Bok NEO Survey)

・ 軌道要素

Epoch 2023 Feb. 25.0 TT = JDT 2460000.5
T 2022 Jan. 17.54701 TT                                 Rudenko
q   3.6984633            (2000.0)            P               Q
z  +0.0011298      Peri.  150.68428     -0.55795818     +0.42441853
 +/-0.0000090      Node   286.18256     +0.53981332     +0.83829622
e   0.9958215      Incl.  132.05101     +0.63030489     -0.34224020
H   16.5
>From 44 observations 2022 Jan. 31-Dec. 15, mean residual 0".3.

・ 光度変化

        H = 16.0  G = 0.15

---------------------------------------------------------------------

軌道要素はM.P.E.C. 2022-Y114に掲載されたものです。
光度グラフはComet for Windowsで作成したものです。

---------------------------------------------------------------------

Copyright(C) Seiichi Yoshida (comet@aerith.net). All rights reserved.